This demonstration page uses our WeatherBlox Daily Observations layout. Learn more.

Hourly Observations for December 9, 2015

Temp ( °F °C ) Dew Point ( °F °C ) Humidity (%) Winds ( mph kmh ) Pressure ( in mb ) Visibility ( mi km ) Precip ( " mm )
12:15 am 00:15 Clear 39 3.7 31 -0.6 74 74 W 5 7 29.97 1015 10 16.0934 0 0
12:35 am 00:35 Clear 38 3.4 31 -0.6 75 75 W 7 11 29.97 1015 10 16.0934 0 0
12:55 am 00:55 Clear 39 3.7 31 -0.5 74 74 W 8 13 29.97 1015 10 16.0934 0 0
1:15 am 01:15 Clear 39 4 31 -0.5 73 73 W 6 9 29.97 1015 10 16.0934 0 0
1:35 am 01:35 Clear 39 4 31 -0.8 71 71 W 6 9 29.94 1014 10 16.0934 0 0
1:55 am 01:55 Clear 37 3 30 -1.3 74 74 WSW 6 9 29.94 1014 10 16.0934 0 0
2:15 am 02:15 Clear 38 3.4 30 -1.2 72 72 WSW 7 11 29.94 1014 10 16.0934 0 0
2:35 am 02:35 Clear 38 3.2 30 -1.3 73 73 WSW 5 7 29.94 1014 10 16.0934 0 0
2:55 am 02:55 Clear 38 3.4 29 -1.6 70 70 W 6 9 29.94 1014 10 16.0934 0 0
3:15 am 03:15 Clear 38 3.3 29 -1.5 71 71 W 8 13 29.94 1014 10 16.0934 0 0
3:35 am 03:35 Clear 38 3.5 29 -1.4 71 71 W 6 9 29.94 1014 10 16.0934 0 0
3:55 am 03:55 Clear 37 3 29 -1.7 72 72 WSW 5 7 29.94 1014 10 16.0934 0 0
4:15 am 04:15 Clear 37 2.7 29 -1.9 72 72 WSW 3 6 29.91 1013 10 16.0934 0 0
4:35 am 04:35 Clear 37 2.7 29 -1.7 73 73 WSW 7 11 29.91 1013 10 16.0934 0 0
4:55 am 04:55 Clear 37 2.6 29 -1.8 73 73 WSW 5 7 29.91 1013 10 16.0934 0 0
5:15 am 05:15 Clear 36 2 28 -2 75 75 WSW 7 11 29.91 1013 10 16.0934 0 0
5:35 am 05:35 Clear 36 2.2 29 -1.7 76 76 W 7 11 29.91 1013 10 16.0934 0 0
5:55 am 05:55 Clear 37 3 30 -1.2 74 74 W 12 19 29.91 1013 10 16.0934 0 0
6:15 am 06:15 Clear 37 2.6 29 -1.5 75 75 W 15 24 29.91 1013 10 16.0934 0 0
6:35 am 06:35 Clear 37 2.8 30 -1.2 75 75 W 12 19 29.91 1013 10 16.0934 0 0
6:55 am 06:55 Clear 38 3.2 30 -1.1 74 74 W 12 19 29.91 1013 10 16.0934 0 0
7:15 am 07:15 Clear 38 3.3 30 -1.2 73 73 W 12 19 29.88 1012 10 16.0934 0 0
7:35 am 07:35 Clear 38 3.1 30 -1.2 74 74 W 12 19 29.88 1012 10 16.0934 0 0
7:55 am 07:55 Sunny 39 3.9 30 -1 71 71 W 13 20 29.88 1012 10 16.0934 0 0
8:15 am 08:15 Sunny 40 4.3 31 -0.8 70 70 W 13 20 29.88 1012 10 16.0934 0 0
8:35 am 08:35 Sunny 42 5.6 31 -0.4 66 66 W 12 19 29.85 1011 10 16.0934 0 0
8:55 am 08:55 Sunny 43 6 31 -0.5 63 63 W 12 19 29.85 1011 10 16.0934 0 0
9:15 am 09:15 Sunny 44 6.4 31 -0.5 62 62 WSW 10 17 29.85 1011 10 16.0934 0 0
9:35 am 09:35 Sunny 46 7.9 32 -0.2 57 57 W 13 20 29.83 1010 10 16.0934 0 0
9:55 am 09:55 Sunny 46 8 32 -0.2 57 57 WSW 10 17 29.83 1010 10 16.0934 0 0
10:15 am 10:15 Sunny 50 10 32 0 50 50 WSW 14 22 29.83 1010 10 16.0934 0 0
10:35 am 10:35 Sunny 49 9.5 32 -0.2 51 51 W 13 20 29.83 1010 10 16.0934 0 0
10:55 am 10:55 Sunny 50 10 32 0 50 50 WSW 12 19 29.8 1009 10 16.0934 0 0
11:15 am 11:15 Sunny 53 11.4 32 0.1 46 46 WSW 14 22 29.77 1008 10 16.0934 0 0
11:35 am 11:35 Sunny 55 12.7 32 0.1 42 42 W 14 22 29.77 1008 10 16.0934 0 0
11:55 am 11:55 Sunny 56 13.3 32 0 40 40 WSW 13 20 29.77 1008 10 16.0934 0 0
12:15 pm 12:15 Sunny 57 13.7 32 0 39 39 SW 13 20 29.71 1006 10 16.0934 0 0
12:35 pm 12:35 Sunny 58 14.2 32 0.1 38 38 SW 13 20 29.71 1006 10 16.0934 0 0
12:55 pm 12:55 Sunny 59 15 33 0.5 37 37 SW 13 20 29.68 1005 10 16.0934 0 0
1:15 pm 13:15 Sunny 61 16.1 33 0.8 36 36 SW 10 17 29.68 1005 10 16.0934 0 0
1:35 pm 13:35 Sunny 64 17.5 33 0.5 32 32 SW 13 20 29.62 1003 10 16.0934 0 0
1:55 pm 13:55 Sunny 65 18.1 33 0.4 30 30 SW 9 15 29.62 1003 10 16.0934 0 0
2:15 pm 14:15 Sunny 66 18.7 33 0.5 30 30 SW 10 17 29.62 1003 10 16.0934 0 0
2:35 pm 14:35 Sunny 66 19.1 33 0.4 29 29 SW 10 17 29.59 1002 10 16.0934 0 0
2:55 pm 14:55 Sunny 67 19.5 32 0.2 28 28 SW 8 13 29.56 1001 10 16.0934 0 0
3:15 pm 15:15 Sunny 67 19.5 31 -0.3 27 27 SW 12 19 29.56 1001 10 16.0934 0 0
3:35 pm 15:35 Sunny 65 18.6 32 0 29 29 SW 9 15 29.56 1001 10 16.0934 0 0
3:55 pm 15:55 Sunny 64 17.5 32 0 31 31 SSW 7 11 29.56 1001 10 16.0934 0 0
4:15 pm 16:15 Sunny 61 16.1 33 0.5 35 35 SSW 7 11 29.56 1001 10 16.0934 0 0
4:35 pm 16:35 Sunny 61 16 33 0.3 35 35 SSW 8 13 29.56 1001 10 16.0934 0 0
4:55 pm 16:55 Sunny 59 14.8 33 0.5 38 38 SSW 7 11 29.59 1002 10 16.0934 0 0
5:15 pm 17:15 Clear 56 13.5 33 0.7 42 42 SSW 7 11 29.59 1002 10 16.0934 0 0
5:35 pm 17:35 Clear 54 12.1 33 0.7 46 46 SSW 7 11 29.62 1003 10 16.0934 0 0
5:55 pm 17:55 Clear 54 12 34 1 47 47 SSW 8 13 29.59 1002 10 16.0934 0 0
6:15 pm 18:15 Clear 53 11.6 34 1 48 48 SW 8 13 29.59 1002 10 16.0934 0 0
6:35 pm 18:35 Clear 53 11.8 34 1.1 48 48 SSW 10 17 29.62 1003 10 16.0934 0 0
6:55 pm 18:55 Clear 54 12.2 34 1.3 48 48 SSW 9 15 29.59 1002 10 16.0934 0 0
7:15 pm 19:15 Clear 53 11.5 34 1.3 50 50 SW 10 17 29.59 1002 10 16.0934 0 0
7:35 pm 19:35 Clear 52 11.2 34 1.2 50 50 SW 8 13 29.59 1002 10 16.0934 0 0
7:55 pm 19:55 Clear 51 10.8 34 1 51 51 SW 6 9 29.59 1002 10 16.0934 0 0
8:15 pm 20:15 Clear 51 10.5 34 1 52 52 SW 9 15 29.56 1001 10 16.0934 0 0
8:35 pm 20:35 Clear 51 10.7 33 0.8 51 51 SW 9 15 29.56 1001 10 16.0934 0 0
8:55 pm 20:55 Clear 51 10.8 33 0.6 50 50 SW 10 17 29.56 1001 10 16.0934 0 0
9:15 pm 21:15 Clear 50 10.1 33 0.6 52 52 SW 9 15 29.56 1001 10 16.0934 0 0
9:35 pm 21:35 Clear 51 10.3 33 0.7 52 52 SW 10 17 29.56 1001 10 16.0934 0 0
9:55 pm 21:55 Clear 50 10 33 0.7 53 53 SW 12 19 29.56 1001 10 16.0934 0 0
10:15 pm 22:15 Clear 49 9.5 33 0.8 55 55 SW 10 17 29.56 1001 10 16.0934 0 0
10:35 pm 22:35 Clear 49 9.6 34 1.1 56 56 SW 9 15 29.56 1001 10 16.0934 0 0
10:55 pm 22:55 Clear 49 9.2 35 1.5 59 59 SW 13 20 29.56 1001 10 16.0934 0 0
11:15 pm 23:15 Clear 48 8.8 35 1.6 61 61 SW 9 15 29.56 1001 10 16.0934 0 0
11:35 pm 23:35 Clear 47 8.6 35 1.9 63 63 WSW 8 13 29.56 1001 10 16.0934 0 0
11:55 pm 23:55 Clear 47 8.5 36 2 64 64 WSW 7 11 29.56 1001 10 16.0934 0 0

Powered by AerisWeather